Regional Weather Roundup
Issued by NWS

Home | Current Version | Previous Version | Graphics & Text | Print | Product List | Glossary Off
Versions: 1 2 3 4 5 6 7 8 9 10 11 12 13 14 15 16 17 18 19 20 21 22 23 24 25 26 27 28 29 30 31 32 33 34 35 36 37 38 39 40 41 42 43 44 45 46 47 48 49 50

000
ASUS43 KTOP 011559
RWRKS

WEATHER ROUNDUP FOR KANSAS
NATIONAL WEATHER SERVICE GOODLAND KS
1100 AM CDT SAT OCT 01 2016

NOTE:  "FAIR" INDICATES FEW OR NO CLOUDS BELOW 12,000 FEET WITH NO
SIGNIFICANT WEATHER AND/OR OBSTRUCTIONS TO VISIBILITY.

KSZ001>006-013>018-027>032-041>047-011700-
NORTHWEST KANSAS

CITY           SKY/WX    TMP DP  RH WIND       PRES   REMARKS
GOODLAND       SUNNY     62  48  60 SE7       30.12S
HAYS           CLOUDY    70  45  40 SE12      30.12S
HILL CITY      CLOUDY    65  48  54 SE7       30.13S
RUSSELL        SUNNY     67  50  54 SE10      30.12S
$$

KSZ061>065-074>080-084>089-011700-
SOUTHWEST KANSAS

CITY           SKY/WX    TMP DP  RH WIND       PRES   REMARKS
DODGE CITY     SUNNY     71  49  45 S15       30.10F
ELKHART          N/A     71  53  52 W5          N/A
GARDEN CITY    SUNNY     67  50  54 SE13      30.08S
GREAT BEND     SUNNY     70  46  43 SE12      30.12S
LIBERAL        SUNNY     70  52  52 SW10G16   30.10R
$$

KSZ066>073-081>083-090>101-011700-
SOUTHEAST KANSAS

CITY           SKY/WX    TMP DP  RH WIND       PRES   REMARKS
CHANUTE        SUNNY     69  56  62 CALM      30.13S
COFFEYVILLE    CLOUDY    70  56  61 CALM      30.13S
HUTCHINSON     SUNNY     69  51  52 S6        30.14S
MEDICINE LODGE   N/A     68  48  48 S8        30.12S
NEWTON         SUNNY     69  52  54 S7        30.15R
PARSONS        SUNNY     70  51  51 W3        30.14S
WICHITA INTL   PTSUNNY   67  53  61 S5        30.13S
WICHITA JABRA  PTSUNNY   65  55  70 CALM      30.14R
WICHITA MCCONL PTSUNNY   66  54  64 CALM      30.14R
WINFIELD       SUNNY     70  53  54 SE7       30.14S
$$

KSZ007>012-019>026-033>040-048>060-102>105-011700-
NORTHEAST KANSAS

CITY           SKY/WX    TMP DP  RH WIND       PRES   REMARKS
CONCORDIA      SUNNY     64  54  69 E6        30.14F
EMPORIA        SUNNY     64  57  78 CALM      30.14S
LAWRENCE       MOSUNNY   66  59  78 CALM      30.14S
MANHATTAN      SUNNY     61  55  81 CALM      30.14S
OLATHE IND     PTSUNNY   65  56  72 CALM      30.14S
OLATHE EXE     CLOUDY    64  55  72 N5        30.13S
SALINA         SUNNY     69  51  52 CALM      30.14S
TOPEKA BILLARD MOSUNNY   63  57  81 CALM      30.13F
TOPEKA FORBES  MOSUNNY   65  56  72 CALM      30.14S
$$



USA.gov is the U.S. government's official web portal to all federal, state and local government web resources and services.